Wheeler Observed Data For Previous 48 Hours

Caption
Day and Hour Reservoir Elevation (behind dam)* Tailwater Elevation (below dam)* Average Hourly Discharge*
9/21/2017 1 AM CDT 554.75 507.04 18,876
9/21/2017 2 AM CDT 554.75 507.06 18,905
9/21/2017 3 AM CDT 554.75 507.02 19,092
9/21/2017 4 AM CDT 554.75 506.87 31,548
9/21/2017 5 AM CDT 554.75 506.91 31,820
9/21/2017 6 AM CDT 554.75 506.91 31,951
9/21/2017 7 AM CDT 554.74 506.88 40,768
9/21/2017 8 AM CDT 554.72 506.92 41,661
9/21/2017 9 AM CDT 554.72 506.93 41,831
9/21/2017 10 AM CDT 554.72 506.80 41,679
9/21/2017 11 AM CDT 554.71 507.00 50,966
9/21/2017 12 PM CDT 554.66 507.08 52,924
9/21/2017 1 PM CDT 554.66 506.95 60,973
9/21/2017 2 PM CDT 554.66 506.99 60,965
9/21/2017 3 PM CDT 554.61 507.11 60,864
9/21/2017 4 PM CDT 554.51 506.98 60,591
9/21/2017 5 PM CDT 554.44 507.08 60,669
9/21/2017 6 PM CDT 554.40 507.25 60,649
9/21/2017 7 PM CDT 554.46 506.96 51,632
9/21/2017 8 PM CDT 554.49 506.68 42,429
9/21/2017 9 PM CDT 554.44 506.73 41,924
9/21/2017 10 PM CDT 554.49 506.66 32,661
9/21/2017 11 PM CDT 554.55 506.73 19,532
9/22/2017 12 AM CDT 554.55 506.64 19,021
9/22/2017 1 AM CDT 554.55 506.66 19,051
9/22/2017 2 AM CDT 554.60 506.78 19,076
9/22/2017 3 AM CDT 554.61 506.67 19,201
9/22/2017 4 AM CDT 554.60 506.66 19,172
9/22/2017 5 AM CDT 554.61 506.64 19,215
9/22/2017 6 AM CDT 554.59 506.69 19,441
9/22/2017 7 AM CDT 554.56 506.51 31,628
9/22/2017 8 AM CDT 554.55 506.65 31,982
9/22/2017 9 AM CDT 554.56 506.61 32,031
9/22/2017 10 AM CDT 554.53 506.61 33,244
9/22/2017 11 AM CDT 554.49 506.68 32,625
9/22/2017 12 PM CDT 554.50 506.70 32,339
9/22/2017 1 PM CDT 554.49 506.65 32,171
9/22/2017 2 PM CDT 554.44 506.77 32,420
9/22/2017 3 PM CDT 554.46 506.78 41,199
9/22/2017 4 PM CDT 554.47 506.73 42,123
9/22/2017 5 PM CDT 554.47 506.72 41,989
9/22/2017 6 PM CDT 554.47 506.66 42,030
9/22/2017 7 PM CDT 554.49 506.61 32,815
9/22/2017 8 PM CDT 554.49 506.63 32,218
9/22/2017 9 PM CDT 554.49 506.71 32,258
9/22/2017 10 PM CDT 554.48 506.67 32,269
9/22/2017 11 PM CDT 554.52 506.71 32,180
9/23/2017 12 AM CDT 554.58 506.76 19,451
9/23/2017 1 AM CDT 554.59 506.73 18,962
9/23/2017 2 AM CDT 554.57 506.63 19,024

Elevations are in feet above sea level. Discharges are in cubic feet per second and are reported at the end of the hour.